[Iaude] MPEC J29: 2024 JD [a=1.23,e=0.18,i=0.4,H=27.5]
    mpec at cfa.harvard.edu 
    mpec at cfa.harvard.edu
       
    Thu May  2 14:26:52 EDT 2024
    
    
  
M.P.E.C. 2024-J29                                   Issued 2024 May 2, 18:25 UT
     The Minor Planet Electronic Circulars contain information on unusual
         minor planets, routine data on comets and natural satellites,
         and occasional editorial announcements.  They are published
    on behalf of Division F of the International Astronomical Union by the
          Minor Planet Center, Smithsonian Astrophysical Observatory,
                          Cambridge, MA 02138, U.S.A.
			  
             Prepared using the Tamkin Foundation Computer Network
                              MPC at CFA.HARVARD.EDU
            URL https://www.minorplanetcenter.net/    ISSN 1523-6714
                                    2024 JD                                     
Observations:
     K24J00D* C2024 05 01.26745710 16 37.268-04 35 41.18         20.10wXEJ029F51
     K24J00D  C2024 05 01.27864810 16 32.865-04 36 29.43         20.25wXEJ029F51
     K24J00D  C2024 05 01.28984410 16 28.483-04 37 17.56         20.30wXEJ029F51
     K24J00D  C2024 05 01.30100910 16 24.150-04 38 05.30         20.31wXEJ029F51
     K24J00D  C2024 05 01.40344710 15 48.716-04 45 18.94         20.22GVEJ029F51
     K24J00D  C2024 05 01.40409310 15 48.520-04 45 21.62         20.00GVEJ029F51
     K24J00D KC2024 05 02.15933 10 14 34.17 -05 50 57.2                VEJ029691
     K24J00D KC2024 05 02.16448 10 14 31.96 -05 51 25.3          20.4 RVEJ029691
     K24J00D KC2024 05 02.16963 10 14 29.76 -05 51 53.5          19.5 RVEJ029691
     K24J00D mC2024 05 02.17052910 14 28.871-05 52 03.43         19.42GVEJ029I52
     K24J00D mC2024 05 02.17074510 14 28.820-05 52 04.94         19.16GVEJ029I52
     K24J00D mC2024 05 02.17204610 14 28.212-05 52 11.86         20.23GVEJ029I52
     K24J00D mC2024 05 02.17364310 14 27.550-05 52 20.78         19.77GVEJ029I52
     K24J00D KC2024 05 02.37645510 14 01.867-05 55 06.89         19.7 GVEJ029474
     K24J00D KC2024 05 02.37846210 14 01.058-05 55 18.37         20.1 GVEJ029474
     K24J00D KC2024 05 02.38046810 14 00.204-05 55 29.60         19.8 GVEJ029474
     K24J00D KC2024 05 02.38247510 13 59.458-05 55 41.56         19.4 GVEJ029474
     K24J00D KC2024 05 02.38448310 13 58.618-05 55 53.36         19.8 GVEJ029474
Observer details:
474 Mount John Observatory, Lake Tekapo.  Observers A. C. Gilmore, P. M.
    Kilmartin.  Measurer P. M. Kilmartin.  0.6-m f/6.3 Reflector + CCD.
691 Steward Observatory, Kitt Peak-Spacewatch.  Observer T. H. Bressi.  0.9-m
    f/3 reflector + CCD.
F51 Pan-STARRS 1, Haleakala.  Observers J. Herman, T. Lowe, P. Minguez, A.
    Schultz, I. Smith.  Measurers K. Chambers, T. de Boer, J. Fairlamb, H.
    Gao, M. Huber, C.-C. Lin, E. Magnier, Y. Ramanjooloo, R. Wainscoat, R.
    Weryk.  1.8-m Ritchey-Chretien + CCD.
I52 Steward Observatory, Mt. Lemmon Station.  Observers V. F. Carvajal, G. J.
    Leonard.  Measurers T. Beuden, V. F. Carvajal, D. Fay, J. B. Fazekas, D.
    C. Fuls, A. R. Gibbs, A. D. Grauer, H. Groeller, J. K. Hogan, R. A.
    Kowalski, S. M. Larson, G. J. Leonard, D. Rankin, R. L. Seaman, F. C.
    Shelly, K. W. Wierzchos.  1.0-m prime focus + CCD.
Orbital elements:
2024 JD                                                  Earth MOID = 0.0005 AU
Epoch 2024 Mar. 31.0 TT = JDT 2460400.5                 Bell                    
M 327.97533              (2000.0)            P               Q                  
n   0.72088660     Peri.  349.56928     -0.58386350     +0.81182445             
a   1.2318507      Node   244.70766     -0.74432729     -0.53856344             
e   0.1810968      Incl.    0.42262     -0.32416090     -0.22558921             
P   1.37           H   27.53          G   0.15           U   8                  
Residuals in seconds of arc
240501 F51  0.0   0.1+    240502 691  0.2-  0.2-    240502 I52  0.1-  0.1-
240501 F51  0.0   0.0     240502 691  0.3-  0.0     240502 474  0.2+  0.1+
240501 F51  0.0   0.0     240502 691  0.5-  0.1+    240502 474  0.2+  0.1+
240501 F51  0.1-  0.0     240502 I52  0.1+  0.2+    240502 474  0.6-  0.4+
240501 F51  0.1+  0.1-    240502 I52  0.7+  0.2-    240502 474  0.3+  0.1-
240501 F51  0.0   0.1-    240502 I52  0.2-  0.1+    240502 474  0.2-  0.4-
Ephemeris:
2024 JD                  a,e,i = 1.23, 0.18, 0                   q = 1.0088
Date    TT    R. A. (2000) Decl.     Delta      r    Elong.  Phase     V
2024 04 02    10 45 39.8 +01 32 55   0.06185 1.0532   149.3    28.9    22.9
...
2024 04 17    10 30 33.7 +01 09 03   0.03614 1.0280   131.3    47.2    22.2
...
2024 04 25    10 24 16.6 -00 27 35   0.02296 1.0185   122.5    56.4    21.4
...
2024 05 01    10 17 11.9 -04 12 13   0.01303 1.0133   116.1    63.2    20.4
2024 05 02    10 15 06.9 -05 28 33   0.01137 1.0127   115.0    64.4    20.1
2024 05 03    10 12 23.3 -07 10 59   0.0097131.0120   113.8    65.6    19.8
...
2024 05 09    00 26 54.3 -54 38 41   0.0020091.0092    79.4   100.5    17.7
...
2024 05 17    22 16 10.9 +04 07 59   0.01451 1.0086    79.1   100.1    22.0
...
2024 06 01    22 10 53.5 +09 17 15   0.03850 1.0163    92.3    85.5    23.5
M. P. C. Staff               (C) Copyright 2024 MPC           M.P.E.C. 2024-J29
    
    
More information about the Iaude
mailing list